Snowfall_Accumulation
0.0 0.0 0.0 0.0 0.0 0.0 0.0 0.1 0.2 0.3 0.0 0.0 0.0 0.0 0.0 0.0 0.0 0.0 0.0 0.0 0.0 0.0 0.0 0.0 0.0 0.0 0.0 0.0 0.0 0.0 0.0 0.0 0.0 0.0 0.0 0.0 0.0 0.0
0.0 0.0 0.0 0.0 0.0 0.0 0.0 0.1 0.1 0.3 0.4 0.0 0.0 0.0 0.0 0.0 0.0 0.0 0.0 0.0 0.0 0.0 0.1 0.1 0.1 0.1 0.1 0.0 0.0 0.0 0.0 0.0 0.0 0.0 0.0 0.0 0.0 0.0
0.0 0.0 0.0 0.1 0.1 0.1 0.1 0.1 0.1 0.2 0.4 0.1 0.1 0.1 0.1 0.0 0.0 0.0 0.0 0.0 0.0 0.1 0.1 0.1 0.2 0.1 0.1 0.1 0.1 0.1 0.0 0.0 0.0 0.0 0.0 0.0 0.0 0.0
0.1 0.0 0.1 0.1 0.1 0.2 0.1 0.2 0.2 0.3 0.9 1.0 0.3 0.2 0.2 0.2 0.1 0.1 0.0 0.0 0.0 0.0 0.1 0.2 0.2 0.2 0.2 0.2 0.2 0.1 0.1 0.0 0.0 0.0 0.0 0.0 0.0 0.0
0.1 0.2 0.2 0.2 0.2 0.2 0.3 0.3 0.4 0.4 0.7 1.1 0.6 0.2 0.2 0.1 0.2 0.1 0.1 0.0 0.0 0.0 0.0 0.1 0.1 0.2 0.3 0.3 0.3 0.2 0.2 0.2 0.1 0.1 0.1 0.0 0.0 0.0
0.4 0.4 0.6 0.5 0.6 0.5 0.5 0.6 0.8 0.9 1.0 1.4 1.6 1.1 0.8 0.4 0.4 0.3 0.2 0.1 0.1 0.1 0.1 0.0 0.1 0.2 0.2 0.2 0.2 0.3 0.3 0.3 0.4 0.4 0.4 0.2 0.1 0.1
0.5 0.5 0.4 0.3 0.3 0.4 0.6 1.0 1.2 1.7 2.4 2.8 2.6 1.8 1.1 0.9 0.8 0.7 0.9 0.4 0.4 0.1 0.1 0.1 0.1 0.1 0.1 0.1 0.1 0.1 0.2 0.4 0.6 0.6 0.5 0.4 0.2 0.1
0.3 0.6 0.4 0.5 0.4 0.4 0.6 1.0 1.8 3.0 3.9 4.1 3.8 2.7 1.3 1.0 0.9 1.2 1.7 2.5 2.0 0.4 0.5 0.4 0.3 0.2 0.2 0.1 0.1 0.3 0.4 0.7 0.8 0.9 0.7 0.6 0.4 0.3
0.9 0.7 0.6 0.5 0.6 0.5 0.5 1.0 1.5 2.0 2.6 3.1 3.1 1.9 1.4 1.2 2.4 3.7 3.7 4.1 3.1 1.1 1.1 1.2 0.4 0.4 0.2 0.2 0.2 0.4 0.4 0.6 0.8 0.9 0.8 0.6 0.6 0.4
0.7 0.5 0.7 0.6 0.5 0.9 1.5 1.9 1.2 0.7 0.7 0.8 1.1 1.2 1.2 1.5 3.1 5.4 5.3 4.2 2.0 0.8 0.8 2.2 0.8 0.6 0.2 0.2 0.2 0.3 0.4 0.6 0.8 0.9 1.0 0.7 0.7 0.6
0.5 0.5 0.6 0.5 0.7 1.9 3.1 2.8 1.4 0.3 0.2 0.5 0.9 1.0 0.9 1.0 1.4 4.0 5.6 6.3 4.5 1.2 1.2 2.0 1.4 1.2 1.0 0.7 0.2 0.4 0.8 0.8 1.1 1.0 1.0 1.0 0.8 0.8
0.6 0.6 0.5 0.7 1.3 2.6 3.1 2.8 2.0 0.8 1.0 0.7 0.5 0.2 0.3 0.4 0.7 3.0 7.2 11.6 9.3 5.3 1.7 3.1 3.6 4.2 5.3 2.1 1.7 1.3 1.1 1.1 1.1 0.9 1.1 1.1 1.2 1.3
1.3 1.0 0.4 1.1 2.1 2.4 2.3 1.6 1.8 2.4 2.0 1.1 0.8 0.7 0.7 0.7 0.8 1.5 3.9 11.1 14.9 9.7 3.0 7.2 8.9 6.1 9.8 7.2 3.1 2.3 2.3 2.6 2.1 1.4 1.2 1.1 1.2 1.6
1.8 1.0 0.9 1.7 1.9 1.6 1.2 1.3 1.6 1.6 1.4 1.7 1.7 1.7 1.7 1.8 1.9 2.2 3.1 5.3 8.4 9.6 6.3 9.6 14.9 11.5 14.0 11.3 5.9 3.9 2.6 3.5 4.3 3.0 1.9 1.1 1.0 1.1
1.3 1.5 1.6 1.5 1.4 1.3 1.0 1.4 1.6 1.9 2.6 3.6 3.2 2.5 2.5 2.9 3.1 4.0 4.2 4.4 5.1 5.5 7.2 7.8 11.3 12.4 14.9 14.5 10.4 8.0 8.3 5.4 5.4 5.0 3.5 2.3 1.6 1.5
1.8 1.5 1.3 1.0 1.1 1.4 1.4 1.7 1.8 2.6 4.4 5.9 5.3 4.0 3.8 4.6 6.0 7.3 8.8 9.3 11.2 9.5 8.2 8.0 8.4 12.0 14.3 11.5 12.4 11.6 11.3 11.7 8.4 6.5 5.0 3.6 2.2 1.7
2.2 1.4 1.6 1.6 1.7 1.8 1.8 2.0 2.3 2.7 4.4 5.6 6.4 7.1 7.1 8.2 9.8 11.6 12.9 12.9 12.9 11.0 8.9 7.1 6.6 7.1 9.1 10.5 11.7 11.1 11.4 11.6 9.0 6.4 6.2 6.3 3.2 2.3
2.1 2.4 2.2 2.4 2.6 2.6 2.9 2.8 3.0 4.0 5.5 7.2 8.4 9.6 11.6 12.5 12.7 12.5 13.1 13.5 12.6 9.9 8.4 6.9 6.9 7.5 7.0 6.3 8.4 11.1 11.7 11.9 8.4 7.1 7.3 8.7 6.8 3.7
2.7 2.9 2.8 3.0 3.3 3.7 4.1 4.8 4.5 4.8 6.6 9.1 11.4 13.3 14.5 14.8 14.5 13.8 12.5 11.5 10.0 7.9 6.9 6.2 7.2 11.9 12.8 8.4 6.1 8.1 13.5 13.8 9.7 8.0 7.5 8.3 8.5 5.8
3.2 4.4 4.6 4.1 4.3 5.0 5.7 6.6 7.4 8.0 9.0 11.5 13.0 14.5 15.9 16.7 15.1 12.7 10.8 9.9 8.9 7.2 5.6 4.7 6.0 11.3 17.5 15.9 12.3 9.7 9.4 14.0 15.3 13.5 8.6 6.1 5.5 3.9
4.7 5.2 5.4 5.2 5.0 6.3 7.2 8.6 10.2 11.9 12.5 14.4 15.2 15.8 16.5 16.5 13.7 10.2 8.5 7.2 7.5 7.7 7.2 5.4 4.6 6.2 10.7 14.1 12.7 9.0 9.8 8.3 10.8 16.7 16.2 14.0 10.8 8.0
3.9 4.6 5.0 5.2 5.8 7.4 8.4 10.1 11.7 12.5 13.7 14.8 15.8 15.7 14.6 13.5 11.7 8.5 7.5 7.6 7.3 6.9 6.6 5.1 4.2 5.2 8.7 12.8 11.6 8.7 9.0 8.8 6.7 5.6 8.1 12.8 20.8 21.3
4.3 5.0 5.9 6.2 7.1 8.4 10.2 11.3 12.1 12.9 14.4 15.7 15.6 14.3 12.4 10.4 8.1 7.6 7.5 7.6 7.7 7.0 6.5 6.2 5.5 5.6 6.7 8.4 10.0 8.9 8.1 7.5 7.1 7.5 9.5 6.3 6.6 8.0